DW3435 Weather Reports


time (UTC)temp
C
wind
direction
speed
KPH
gust
KPH
rain 1hr
cm
rain 24hr
cm
rain mn
cm
humidity
%
barometer
mb
20260503230001 17 173 0.0 9.7 0.00 0.00 0.00 48 1015.2
20260503224611 17 186 1.6 6.4 0.00 0.00 0.00 47 1015.3
20260503223112 17 184 3.2 12.9 0.00 0.00 0.00 45 1015.4
20260503221557 17 207 0.0 11.3 0.00 0.00 0.00 45 1015.5
20260503220055 17 157 0.0 6.4 0.00 0.00 0.00 46 1015.7
20260503214558 17 219 1.6 16.1 0.00 0.00 0.00 45 1015.7
20260503213052 18 229 0.0 16.1 0.00 0.00 0.00 44 1015.8
20260503211552 18 181 1.6 12.9 0.00 0.00 0.00 45 1015.9
20260503210050 18 205 3.2 16.1 0.00 0.00 0.00 43 1016.2
20260503204548 18 199 1.6 16.1 0.00 0.00 0.00 44 1016.3
20260503203047 18 163 4.8 12.9 0.00 0.00 0.00 43 1016.4
20260503201548 18 276 3.2 12.9 0.00 0.00 0.00 41 1016.8
20260503200045 18 229 3.2 16.1 0.00 0.00 0.00 39 1017.1
20260503194551 18 221 4.8 19.3 0.00 0.00 0.00 44 1017.4
20260503193041 18 210 0.0 11.3 0.00 0.00 0.00 44 1017.6
20260503191539 17 184 4.8 16.1 0.00 0.00 0.00 43 1017.7
20260503190044 18 200 0.0 17.7 0.00 0.00 0.00 43 1018.0
20260503184541 17 188 0.0 6.4 0.00 0.00 0.00 43 1018.2
20260503183041 17 178 3.2 16.1 0.00 0.00 0.00 41 1018.4
20260503181553 17 171 0.0 16.1 0.00 0.00 0.00 47 1018.5
20260503180045 16 119 0.0 16.1 0.00 0.00 0.00 44 1018.9
20260503174534 17 205 6.4 19.3 0.00 0.00 0.00 44 1019.0
20260503173031 16 159 4.8 17.7 0.00 0.00 0.00 43 1019.2
20260503171531 16 72 0.0 14.5 0.00 0.00 0.00 42 1019.5
20260503081537 5 160 0.0 0.0 0.00 0.00 0.00 86 1018.3
20260503071527 6 159 0.0 0.0 0.00 0.00 0.00 83 1017.6
20260503054514 8 160 0.0 0.0 0.00 0.00 0.00 78 1017.2
20260503053015 8 160 0.0 0.0 0.00 0.00 0.00 78 1017.2
20260503051504 9 159 0.0 0.0 0.00 0.00 0.00 77 1017.2
20260503050004 9 159 0.0 0.0 0.00 0.00 0.00 77 1017.1
20260503044501 9 159 0.0 0.0 0.00 0.00 0.00 77 1017.1
20260503043100 10 160 0.0 0.0 0.00 0.00 0.00 74 1017.0
20260503041611 10 160 0.0 0.0 0.00 0.00 0.00 73 1016.8
20260503040054 10 159 0.0 0.0 0.00 0.00 0.00 71 1016.6
20260503034551 11 159 0.0 0.0 0.00 0.00 0.00 69 1016.5
20260503033106 11 160 0.0 0.0 0.00 0.00 0.00 68 1016.4
20260503031550 11 160 0.0 0.0 0.00 0.00 0.00 67 1016.5
20260503030054 11 160 0.0 0.0 0.00 0.00 0.00 66 1016.3
20260503024554 11 159 0.0 6.4 0.00 0.00 0.00 65 1016.4
20260503023052 11 63 0.0 8.0 0.00 0.00 0.00 66 1016.3
20260503021550 10 24 3.2 16.1 0.00 0.00 0.00 72 1016.2
20260503020049 10 60 0.0 0.0 0.00 0.00 0.00 75 1016.0
20260503014548 10 60 0.0 0.0 0.00 0.00 0.00 73 1015.7
20260503013039 10 60 0.0 0.0 0.00 0.00 0.00 71 1015.4
20260503011537 11 60 0.0 0.0 0.00 0.00 0.00 71 1015.3
20260503010036 11 60 0.0 0.0 0.00 0.00 0.00 67 1015.1
20260503004534 12 60 0.0 0.0 0.00 0.00 0.00 65 1014.8
20260503003033 12 60 0.0 0.0 0.00 0.00 0.00 62 1014.7
20260503001532 13 60 0.0 1.6 0.00 0.00 0.00 61 1014.4
20260503000033 13 60 0.0 0.0 0.00 0.00 0.00 61 1014.3
20260502234537 14 60 0.0 0.0 0.00 0.00 0.00 57 1013.9
20260502233031 14 60 0.0 9.7 0.00 0.00 0.00 55 1013.8
20260502231531 15 43 1.6 4.8 0.00 0.00 0.00 50 1013.7